Starlink 5969

operational
NORAD ID: 55993 Int'l Des: 2023-042 Owner: SPXS Country: US Constellation: starlink
LEOCIRCULAR

Starlink 5969について

説明を読み込み中...

リアルタイム位置

3D地球を読み込み中...

次回通過

高度履歴

Altitude vs Time

uPlot chart will show altitude changes over time

軌道要素

1 55993U 23042H 25302.76981781 -.00000714 00000-0 -37803-4 0 9990
2 55993 43.0034 47.7523 0001495 269.9901 90.0770 15.02542405143212
Epoch: Oct 29, 2025 • Age: 30 hours

現在のステータス

高度 571.3 km
速度 7.58 km/s
衛星直下点 -42.93°S, 87.52°W
打ち上げ日 Mar 24, 2023
運用期間 2.6 years
タイプ internet

技術仕様

分類 Payload
質量 305.00 kg
乾燥質量 290.00 kg
総質量 305.00 kg
長さ 0.20 m
直径 2.80 m
スパン 9.00 m
形状 Box + pan
製造者 SPXS
バスタイプ Starlink
フェーズステータス In Orbit
所有者/国 SPXS/US

大規模コンステレーション

Loading constellations...